Location: Bonneuil
(46.1010°N, 2.9693°E)
Time: 13:38:45
(UTC+00:00)

Cosmos 1726 - Pass Details

Date: 09 April 2020
Orbit: 481 x 500 km, 82.5° (Epoch: 26 May)

Event Time Altitude Azimuth Distance (km) Brightness Sun altitude
Rises 19:00:25 0° 189° (S) 2,581 5.7 -6.3°
Reaches altitude 10° 19:02:31 10° 190° (S) 1,702 4.7 -6.6°
Maximum altitude 19:06:15 82° 278° (W) 511 2.2 -7.2°
Drops below altitude 10° 19:10:00 10° 7° (N) 1,711 5.0 -7.8°
Sets 19:12:08 0° 9° (N) 2,597 5.9 -8.2°
